Regional Weather Roundup
Issued by NWS Northern Indiana

Home | Current Version | Previous Version | Text Only | Print | Product List | Glossary Off
Versions: 1 2 3 4 5 6 7 8 9 10 11 12 13 14 15 16 17 18 19 20 21 22 23 24 25 26 27 28 29 30 31 32 33 34 35 36 37 38 39 40 41 42 43 44 45 46 47 48 49 50

000
ASUS43 KIWX 230900
RWRIWX

KIWX WEATHER ROUNDUP
NATIONAL WEATHER SERVICE NORTHERN INDIANA
400 AM EST TUE JAN 23 2018

NOTE: "FAIR" INDICATES FEW OR NO CLOUDS BELOW 12,000 FEET WITH NO
SIGNIFICANT WEATHER AND/OR OBSTRUCTIONS TO VISIBILITY.

* THESE STATIONS ARE NOT UNDER NWS QUALITY CONTROL. THEY ALSO MAY NOT
  REPORT WEATHER SUCH AS PRECIPITATION OR FOG.

INZ001>027-231000-
NORTHERN INDIANA

CITY           SKY/WX    TMP DP  RH WIND       PRES   REMARKS
MICHIGAN CITY* MOCLDY    34  32  93 SW5       29.53R WCI  30
KNOX*          CLOUDY    36  32  87 SW12      29.54R
SOUTH BEND     MOCLDY    35  31  85 SW7       29.53R WCI  29
GOSHEN         CLOUDY    37  33  85 SW10      29.53R
MONTICELLO*    DRIZZLE   36  34  94 SW10      29.58R
FORT WAYNE     LGT RAIN  38  35  89 SW14      29.58R
PERU/GRISSOM   LGT RAIN  37  37 100 SW15      29.58R

$$
INZ028>050-231000-
CENTRAL INDIANA

CITY           SKY/WX    TMP DP  RH WIND       PRES   REMARKS
LAFAYETTE      CLOUDY    36  35  96 SW10      29.59S
MUNCIE*        LGT RAIN  39  34  82 W13G24    29.61R
INDIANAPOLIS   LGT RAIN  36  35  96 SW14      29.63R

$$
MIZ043>046-050>051-056>058-064>065-071>073-077>080-231000-
SOUTHWEST LOWER MICHIGAN

CITY           SKY/WX    TMP DP  RH WIND       PRES   REMARKS
BATTLE CREEK   FAIR      37  34  89 SW9       29.49S
BENTON HARBOR  FAIR      37  30  75 SW12      29.50S
COLDWATER*     FAIR      37  36  94 SW6       29.51S
HILLSDALE*     FAIR      36  32  87 SW6       29.50S
HOLLAND        CLOUDY    38  34  85 SW17      29.47S
GRAND RAPIDS   CLOUDY    38  34  85 SW14      29.46S
KALAMAZOO      FAIR      37  33  85 S10       29.50R
STURGIS*       FAIR      37  35  92 SW8       29.51S
THREE RIVERS*  FAIR      37  35  92 SW5       29.52R

$$
OHZ001>008-015>018-024>025-231000-
NORTHWEST OHIO

CITY           SKY/WX    TMP DP  RH WIND       PRES   REMARKS
DEFIANCE       FAIR      37  32  82 SW6       29.55F
FINDLAY        FAIR      36  31  82 S9        29.57S
TOLEDO EXPRESS FAIR      40  36  86 SW10      29.54S
TOLEDO METCALF FAIR      38  34  85 SW7       29.55F
LIMA           FAIR      37  35  92 S7        29.58R

$$
AND FOR LAKE MICHIGAN COASTAL AND OPEN LAKE BUOY OBSERVATIONS

STATION/POSITION TEMP    WIND        PRES    VSBY  WAVE
                 AIR SEA DIR/SP/G                  HT/PER
                 (F)     (DEG/KT/KT) (MB)    (MI)  (FT/S)
CALUMET HARBOR    36     230/  6/ 10  999.4R
MICHIGAN CITY     37     220/ 13/ 14   N/A
BURNS HARBOR      38     230/ 16/ 19 1000.7R
SAINT JOSEPH      36     210/ 11/ 15 1000.3

$$
&&




USA.gov is the U.S. government's official web portal to all federal, state and local government web resources and services.